Albany, NY

2:57 PM EST on November 13, 2019 (GMT -0500)
Albany International

Weather History for KALB - October, 2019

Change the Weather History Date:

Wednesday, October 23, 2019

  Actual Average Record
Temperature  
Mean Temperature 51 °F 47 °F  
Max Temperature 64 °F 57 °F 81 °F (1947)
Min Temperature 38 °F 37 °F 20 °F (1969)
Degree Days  
Heating Degree Days 14 18  
Month to date heating degree days 279 325  
Since 1 July heating degree days 356 492  
Cooling Degree Days 0 0  
Month to date cooling degree days 4 0  
Year to date cooling degree days 771 594  
Growing Degree Days 1 (Base 50)    
Moisture  
Dew Point 46 °F    
Average Humidity 78    
Maximum Humidity 96    
Minimum Humidity 43    
Precipitation  
Precipitation 0.24 in 0.12 in 2.16 in (1912)
Month to date precipitation 5.79 2.77  
Year to date precipitation 37.00 32.22  
Snow  
Snow 0.00 in 0.00 in 0.50 in (2002)
Month to date snowfall 0.0 0.2  
Since 1 July snowfall 0.0 0.2  
Since 1 September snowfall 0.0 0.2  
Snow Depth 0.00 in    
Sea Level Pressure  
Sea Level Pressure 29.90 in    
Wind  
Wind Speed 5 mph ()    
Max Wind Speed 17 mph    
Max Gust Speed 23 mph    
Visibility 7.3 miles    
Events Fog , Rain    
T = Trace of Precipitation, MM = Missing Value Source: Averaged Metar Reports

Daily Weather History Graph

Daily Weather History Graph

Search for Another Location

Airport or City:

Astronomy

Oct. 23, 2019 Rise Set
Actual Time 7:17 AM EDT 6:00 PM EDT
Civil Twilight 6:48 AM EDT 6:29 PM EDT
Nautical Twilight 6:15 AM EDT 7:02 PM EDT
Astronomical Twilight 5:43 AM EDT 7:35 PM EDT
Moon 1:22 AM EDT (10/23) 3:58 PM EDT (10/23)
Length of Visible Light 11h 40m
Length of Day
10h 42m
Waning Crescent, 27% of the Moon is Illuminated
Oct 23
Waning Crescent
Oct 27
New
Nov 4
First Quarter
Nov 12
Full
Nov 19
Last Quarter

Hourly Weather History & Observations

Time (EDT) Temp. Windchill Dew Point Humidity Pressure Visibility Wind Dir Wind Speed Gust Speed Precip Events Conditions
12:02 AM 55.9 °F - 52.0 °F 87% 29.80 in 10.0 mi WSW 6.9 mph - 0.00 in Rain Light Rain
12:18 AM 55.9 °F - 52.0 °F 87% 29.81 in 10.0 mi West 11.5 mph - 0.00 in Rain Light Rain
12:45 AM 55.4 °F - 53.6 °F 94% 29.82 in 3.0 mi WSW 9.2 mph - 0.05 in Rain Light Rain
12:51 AM 55.9 °F - 53.1 °F 90% 29.83 in 2.5 mi West 9.2 mph - 0.07 in Rain Rain
12:59 AM 55.9 °F - 53.1 °F 90% 29.82 in 3.0 mi WSW 8.1 mph - 0.03 in Rain Light Rain
1:10 AM 57.0 °F - 53.1 °F 87% 29.82 in 3.0 mi SW 6.9 mph - 0.05 in Rain Light Rain
1:51 AM 55.9 °F - 52.0 °F 87% 29.83 in 3.0 mi WNW 12.7 mph - 0.14 in Rain Light Rain
2:13 AM 55.0 °F - 51.1 °F 86% 29.83 in 6.0 mi NW 4.6 mph - 0.03 in Rain Light Rain
2:51 AM 55.0 °F - 52.0 °F 89% 29.82 in 10.0 mi East 4.6 mph - 0.03 in   Overcast
3:51 AM 55.0 °F - 52.0 °F 89% 29.83 in 10.0 mi Calm Calm - 0.00 in   Overcast
4:51 AM 54.0 °F - 51.1 °F 90% 29.83 in 10.0 mi North 3.5 mph - N/A   Overcast
5:43 AM 53.1 °F - 51.1 °F 93% 29.83 in 5.0 mi Calm Calm - N/A Fog Patches of Fog
5:51 AM 53.1 °F - 50.0 °F 89% 29.83 in 2.5 mi Calm Calm - N/A Fog Patches of Fog
6:00 AM 52.0 °F - 50.0 °F 93% 29.83 in 0.8 mi NW 3.5 mph - N/A Fog Patches of Fog
6:11 AM 51.1 °F - 48.0 °F 89% 29.83 in 0.8 mi WNW 3.5 mph - N/A Fog Patches of Fog
6:16 AM 51.1 °F - 48.0 °F 89% 29.83 in 0.5 mi Calm Calm - N/A Fog Fog
6:22 AM 50.0 °F - 48.0 °F 93% 29.83 in 2.0 mi West 3.5 mph - N/A Fog Patches of Fog
6:31 AM 48.9 °F - 46.9 °F 93% 29.83 in 6.0 mi West 4.6 mph - N/A Fog Patches of Fog
6:51 AM 50.0 °F - 46.9 °F 89% 29.84 in 5.0 mi Calm Calm - N/A Fog Patches of Fog
7:51 AM 48.0 °F - 46.9 °F 96% 29.86 in 10.0 mi Calm Calm - N/A Fog Shallow Fog
8:51 AM 53.1 °F - 50.0 °F 89% 29.88 in 10.0 mi WNW 8.1 mph - N/A Fog Scattered Clouds
9:51 AM 55.9 °F - 48.9 °F 77% 29.91 in 10.0 mi West 9.2 mph - N/A Fog Scattered Clouds
10:51 AM 59.0 °F - 42.1 °F 53% 29.91 in 10.0 mi WNW 15.0 mph 20.7 mph N/A   Partly Cloudy
11:51 AM 61.0 °F - 41.0 °F 48% 29.92 in 10.0 mi WNW 15.0 mph 20.7 mph N/A   Scattered Clouds
12:51 PM 62.1 °F - 42.1 °F 48% 29.91 in 10.0 mi NW 12.7 mph - N/A   Mostly Cloudy
1:51 PM 63.0 °F - 39.9 °F 43% 29.90 in 10.0 mi Variable 3.5 mph - N/A   Scattered Clouds
2:51 PM 62.1 °F - 39.0 °F 43% 29.92 in 10.0 mi WNW 13.8 mph - N/A   Mostly Cloudy
3:51 PM 62.1 °F - 39.9 °F 44% 29.93 in 10.0 mi NW 5.8 mph - N/A   Scattered Clouds
4:51 PM 57.9 °F - 39.0 °F 49% 29.95 in 10.0 mi NW 6.9 mph - N/A   Scattered Clouds
5:51 PM 57.0 °F - 37.9 °F 49% 29.99 in 10.0 mi WNW 4.6 mph - N/A   Partly Cloudy
6:51 PM 51.1 °F - 39.0 °F 63% 30.03 in 10.0 mi Calm Calm - N/A   Partly Cloudy
7:51 PM 48.0 °F - 39.0 °F 71% 30.07 in 10.0 mi Calm Calm - N/A   Partly Cloudy
8:51 PM 46.0 °F - 39.0 °F 76% 30.09 in 10.0 mi Calm Calm - N/A   Clear
9:51 PM 43.0 °F 41.3 °F 37.0 °F 80% 30.11 in 10.0 mi SSW 3.5 mph - N/A   Clear
10:51 PM 42.1 °F - 37.0 °F 82% 30.13 in 10.0 mi Calm Calm - N/A   Clear
11:51 PM 42.1 °F - 37.0 °F 82% 30.14 in 10.0 mi Calm Calm - N/A   Clear